Location: Stockholm
(59.3333°N, 18.0500°E)
Time: 04:27:46
(UTC+02:00)

ISS - Pass Details

Date: 21 March 2020
Orbit: 417 x 423 km, 51.6° (Epoch: 29 March)

Event Time Altitude Azimuth Distance (km) Brightness Sun altitude
Rises 20:36:04 0° 230° (SW) 2,357 0.2 -18.7°
Reaches altitude 10° 20:38:33 10° 212° (SSW) 1,496 -1.0 -18.9°
Enters shadow 20:38:42 11° 210° (SSW) 1,455 -1.1 -18.9°
